WetterOnline ( https://www.wetteronline.de )

Wetter aktuell Pähl

Aktuelles Wetter: Hohenpeißenberg (986m)

6-stündlich | Neueste Meldungen
Ortszeit Temperatur Wetter
So, 25.08. 14:00 22.0° C wolkig
So, 25.08. 8:00 16.6° C wolkig
So, 25.08. 2:00 16.9° C wolkenlos
Sa, 24.08. 20:00 19.6° C bewölkt
Sa, 24.08. 14:00 20.5° C wolkenlos
Sa, 24.08. 8:00 14.6° C bedeckt
Sa, 24.08. 2:00 15.0° C wolkig
Fr, 23.08. 20:00 15.9° C bedeckt
Ortszeit Temperatur Wetter
So, 25.08. 14:30 21.5° C leicht bewölkt
So, 25.08. 14:20 21.5° C leicht bewölkt
So, 25.08. 14:10 21.4° C leicht bewölkt
So, 25.08. 14:00 22.0° C wolkig
So, 25.08. 13:50 22.0° C wolkig
So, 25.08. 13:40 21.9° C wolkig
So, 25.08. 13:30 21.5° C wolkig
So, 25.08. 13:00 22.2° C leicht bewölkt
So, 25.08. 12:30 22.0° C wolkig
So, 25.08. 12:00 21.0° C leicht bewölkt
So, 25.08. 11:30 21.4° C wolkig
Ortszeit Relative Feuchte Sichtweite
So, 25.08. 14:00 63% 40 km
So, 25.08. 8:00 74% 40 km
So, 25.08. 2:00 76% 40 km
Sa, 24.08. 20:00 68% 45 km
Sa, 24.08. 14:00 72% 21 km
Sa, 24.08. 8:00 100% <100 m
Sa, 24.08. 2:00 96% 5.0 km
Fr, 23.08. 20:00 93% 11 km
Ortszeit Relative Feuchte Sichtweite
So, 25.08. 14:30 67% 35 km
So, 25.08. 14:20 67% -
So, 25.08. 14:10 67% -
So, 25.08. 14:00 63% 40 km
So, 25.08. 13:50 63% -
So, 25.08. 13:40 65% -
So, 25.08. 13:30 67% -
So, 25.08. 13:00 66% 30 km
So, 25.08. 12:30 62% 30 km
So, 25.08. 12:00 60% 35 km
So, 25.08. 11:30 69% 40 km
Ortszeit Niederschlagsmenge Niederschlagsart
So, 25.08. 14:00 0.0 l/m2 in 6 Std. -
So, 25.08. 8:00 0.0 l/m2 in 12 Std. -
So, 25.08. 2:00 0.0 l/m2 in 6 Std. -
Sa, 24.08. 20:00 0.0 l/m2 in 12 Std. -
Sa, 24.08. 14:00 0.0 l/m2 in 6 Std. -
Sa, 24.08. 8:00 0.0 l/m2 in 12 Std. -
Sa, 24.08. 2:00 0.0 l/m2 in 6 Std. -
Fr, 23.08. 20:00 0.0 l/m2 in 12 Std. -
Ortszeit Niederschlagsmenge Niederschlagsart
So, 25.08. 14:30 0.0 l/m2 in 1 Std. -
So, 25.08. 14:20 keine Meldung -
So, 25.08. 14:10 keine Meldung -
So, 25.08. 14:00 0.0 l/m2 in 1 Std. -
So, 25.08. 13:50 keine Meldung -
So, 25.08. 13:40 keine Meldung -
So, 25.08. 13:30 0.0 l/m2 in 1 Std. -
So, 25.08. 13:00 0.0 l/m2 in 1 Std. -
So, 25.08. 12:30 0.0 l/m2 in 1 Std. -
So, 25.08. 12:00 0.0 l/m2 in 1 Std. -
So, 25.08. 11:30 0.0 l/m2 in 1 Std. -
Ortszeit Stärke Spitze Richtung
km/h Bft. km/h Grad Sektor
So, 25.08. 14:00 7 2 22 360° N
So, 25.08. 8:00 14 3 18 260° W
So, 25.08. 2:00 13 3 26 270° W
Sa, 24.08. 20:00 13 3 26 120° SO
Sa, 24.08. 14:00 7 2 18 10° N
Sa, 24.08. 8:00 4 1 18 60° NO
Sa, 24.08. 2:00 11 2 22 70° O
Fr, 23.08. 20:00 13 3 24 40° NO
Ortszeit Stärke Spitze Richtung
km/h Bft. km/h Grad Sektor
So, 25.08. 14:30 7 2 18 360° N
So, 25.08. 14:20 7 2 - 360° N
So, 25.08. 14:10 9 2 - 360° N
So, 25.08. 14:00 7 2 14 360° N
So, 25.08. 13:50 7 2 - 360° N
So, 25.08. 13:40 7 2 - 20° N
So, 25.08. 13:30 7 2 11 30° NO
So, 25.08. 13:00 7 2 11 40° NO
So, 25.08. 12:30 6 1 11 20° N
So, 25.08. 12:00 4 1 14 320° NW
So, 25.08. 11:30 6 1 11 240° SW
Ortszeit Untergrenze Bedeckung Gattung
total tief tief mittel hoch
So, 25.08. 14:00 7200 m 8/8 0/8 - - -
So, 25.08. 8:00 7800 m 8/8 0/8 - - -
So, 25.08. 2:00 - 0/8 0/8 - - -
Sa, 24.08. 20:00 2100 m 8/8 6/8 - - -
Sa, 24.08. 14:00 - 0/8 0/8 - - -
Sa, 24.08. 8:00 <30 m 8/8 0/8 - - -
Sa, 24.08. 2:00 9000 m 8/8 0/8 - - -
Fr, 23.08. 20:00 240 m 8/8 8/8 - - -
Ortszeit Bedeckungsgrad in Achtel und Wolkenuntergrenze
So, 25.08. 14:30 3(8100m) 5(8700m)
So, 25.08. 14:20 3(8100m) 5(8700m)
So, 25.08. 14:10 2(7200m) 5(8100m) 6(9000m)
So, 25.08. 14:00 7(7200m) 8(8100m) 8(9000m)
So, 25.08. 13:50 7(7200m) 8(8100m)
So, 25.08. 13:40 7(7200m) 7(7800m)
So, 25.08. 13:30 1(750m) 6(7800m) 7(9000m)
So, 25.08. 13:00 5(7800m) 7(9000m) 7(9000m)
So, 25.08. 12:30 6(8400m) 8(9000m)
So, 25.08. 12:00 7(8400m) 7(9000m)
So, 25.08. 11:30 7(8700m) 8(9000m)
Ortszeit Stationsdruck (hPa) Tendenz (hPa in 3 Std.)
So, 25.08. 14:00 909 - 0,4
So, 25.08. 8:00 909 + 0,2
So, 25.08. 2:00 909 - 0,6
Sa, 24.08. 20:00 910 + 0,2
Sa, 24.08. 14:00 910 - 0,1
Sa, 24.08. 8:00 909 - 0,2
Sa, 24.08. 2:00 910 - 1,2
Fr, 23.08. 20:00 912 - 0,1
Ortszeit Stationsdruck (hPa) Tendenz (hPa in 3 Std.)
So, 25.08. 14:30 909 - 0,3
So, 25.08. 14:20 909 keine Meldung
So, 25.08. 14:10 909 keine Meldung
So, 25.08. 14:00 909 - 0,4
So, 25.08. 13:50 909 keine Meldung
So, 25.08. 13:40 909 keine Meldung
So, 25.08. 13:30 909 - 0,2
So, 25.08. 13:00 909 0,0
So, 25.08. 12:30 909 + 0,2
So, 25.08. 12:00 909 + 0,4
So, 25.08. 11:30 909 + 0,5
Ortszeit Schneehöhe (cm)
So, 25.08. 14:00 -
So, 25.08. 8:00 -
So, 25.08. 2:00 -
Sa, 24.08. 20:00 -
Sa, 24.08. 14:00 -
Sa, 24.08. 8:00 -
Sa, 24.08. 2:00 -
Fr, 23.08. 20:00 -
Ortszeit Schneehöhe (cm)
So, 25.08. 14:30 -
So, 25.08. 14:20 -
So, 25.08. 14:10 -
So, 25.08. 14:00 -
So, 25.08. 13:50 -
So, 25.08. 13:40 -
So, 25.08. 13:30 -
So, 25.08. 13:00 -
So, 25.08. 12:30 -
So, 25.08. 12:00 -
So, 25.08. 11:30 -
Link zu dieser Seite / Seite empfehlen

Das Wetter in ...